AirNav   Air Wisconsin Up To $57,000 Bonus
 
 628 users online  

H19 Bowling Green Municipal Airport
Bowling Green, Missouri, USA

GOING TO BOWLING GREEN?


FAA INFORMATION EFFECTIVE 25 MARCH 2021

Location

FAA Identifier: H19
Lat/Long: 39-22-11.7000N 091-13-09.4000W
39-22.195000N 091-13.156667W
39.3699167,-91.2192778
(estimated)
Elevation: 886 ft. / 270.1 m (surveyed)
Variation: 01E (2000)
From city: 2 miles NW of BOWLING GREEN, MO
Time zone: UTC -5 (UTC -6 during Standard Time)
Zip code: 63334

Airport Operations

Airport use: Open to the public
Activation date: 09/1941
Control tower: no
ARTCC: KANSAS CITY CENTER
FSS: SAINT LOUIS FLIGHT SERVICE STATION
NOTAMs facility: STL (NOTAM-D service available)
Attendance: CONTINUOUS
Wind indicator: lighted
Segmented circle: yes
Lights: DUSK-DAWN. ACTVT LIRL RY 13/31 AFT 2100 - CTAF.
Beacon: white-green (lighted land airport)
Operates sunset to sunrise.

Airport Communications

CTAF/UNICOM: 122.8
  • UNICOM NOT MONITORED ON REGULAR BASIS.
  • APCH/DEP SVC PRVDD BY KANSAS CITY ARTCC ON FREQS 126.225/317.775 (QUINCY RCAG).

Nearby radio navigation aids

VOR radial/distance  VOR name  Freq  Var
UINr170/28.8QUINCY VORTAC113.6005E

Airport Services

Fuel available: 100LL
Parking: tiedowns
Bottled oxygen: NONE
Bulk oxygen: NONE

Runway Information

Runway 13/31

Dimensions: 3203 x 50 ft. / 976 x 15 m
Surface: asphalt, in good condition
Weight bearing capacity: 
Single wheel: 12.5
Runway edge lights: low intensity
RWY 13/31 NSTD LIRL; INCORRECT NUMBER OF THLD LGTS AT EACH RWY END, AMBER/WHITE SPLIT LENS MISSING LAST 1602 FT OF EACH RWY.
RUNWAY 13  RUNWAY 31
Latitude: 39-22.380445N39-22.010728N
Longitude: 091-13.398625W091-12.913770W
Elevation: 872.5 ft.886.0 ft.
Traffic pattern: leftleft
Runway heading: 133 magnetic, 134 true313 magnetic, 314 true
Markings: nonprecision, in good conditionnonprecision, in good condition
Touchdown point: yes, no lightsyes, no lights
Obstructions: 39 ft. trees, 423 ft. from runway, 158 ft. right of centerline, 5:1 slope to clear30 ft. trees, 250 ft. from runway, 130 ft. left of centerline, 1:1 slope to clear
RWY 31 +1-3 FT HI GND; 0-200 FT FROM RWY END 35-250 FT LEFT; +1-4 FT HIGH GND, 0-100 FT FM RWY END, 78-250 FT L. ROAD 184 FT FROM RY END, 175 FT L.

Airport Ownership and Management from official FAA records

Ownership: Publicly-owned
Owner: CITY OF BOWLING GREEN
16 W CHURCH ST
BOWLING GREEN, MO 63334
Phone 573-324-5451
Manager: JAKE MCDONALD
16 W CHURCH ST
BOWLING GREEN, MO 63334
Phone (573) 213-2174
AIRPORT PHONE (830) 423-2169

Airport Operational Statistics

Aircraft based on the field: 9
Single engine airplanes: 8
Multi engine airplanes: 1
    
Aircraft operations: avg 49/week *
76% local general aviation
20% transient general aviation
2% military
2% air taxi
* for 12-month period ending 31 December 2017

Additional Remarks

DO NOT OVERFLY PRISON AREA.
FOR CD CTC KANSAS CITY ARTCC AT 913-254-8508.

Instrument Procedures

NOTE: All procedures below are presented as PDF files. If you need a reader for these files, you should download the free Adobe Reader.

NOT FOR NAVIGATION. Please procure official charts for flight.
FAA instrument procedures published for use from 25 March 2021 at 0901Z to 22 April 2021 at 0900z.

 
IAPs - Instrument Approach Procedures
RNAV (GPS) RWY 13   download (199KB)
RNAV (GPS) RWY 31   download (196KB)
NOTE: Special Take-Off Minimums/Departure Procedures apply   download (158KB)

Other nearby airports with instrument procedures:

KHAE - Hannibal Regional Airport (24 nm NW)
KPPQ - Pittsfield Penstone Municipal Airport (26 nm NE)
K52 - Cpt Ben Smith Airfield - Monroe City (28 nm NW)
KMYJ - Mexico Memorial Airport (31 nm SW)
KUIN - Quincy Regional Airport-Baldwin Field (34 nm N)
 
Loc | Ops | Rwys | IFR | FBO | Links
Com | Nav | Svcs | Stats | Notes
Area around H19 (Bowling Green Municipal Airport)
 
Road maps at: MapQuest Bing Google
 
Aerial photo
WARNING: Photo may not be current or correct
Aerial photo of H19 (Bowling Green Municipal Airport)
Taken in January 2008

Do you have a better or more recent aerial photo of Bowling Green Municipal Airport that you would like to share? If so, please send us your photo.

 
Sectional chart

 
Airport distance calculator
Flying to Bowling Green Municipal Airport? Find the distance to fly.

From to H19

Sunrise and sunset
Times for 20-Apr-2021
 Local
(UTC-5)
 Zulu
(UTC)
Morning civil twilight05:5310:53
Sunrise06:2211:22
Sunset19:4600:46
Evening civil twilight20:1401:14

Current date and time
Zulu (UTC)  20-Apr-2021 05:02:30
Local (UTC-5)  20-Apr-2021 00:02:30
 
METAR
KHAE 
24nm NW 
200455Z AUTO 00000KT 10SM SCT075 02/M02 A3009 RMK AO2
KPPQ 
26nm NE 
200455Z AUTO 34004KT 10SM CLR 03/00 A3009 RMK AO2 T00300000
KMYJ 
31nm SW 
200455Z AUTO 01006KT 10SM CLR 02/M01 A3008 RMK AO2
KUIN 
35nm N 
200454Z AUTO 33006KT 10SM OVC075 03/M02 A3008 RMK AO2 SLP186 T00281017 401390028
KI63 
42nm NE 
200455Z AUTO 31003KT 10SM BKN080 BKN090 02/00 A3007 RMK AO2 T00191003
KSET 
45nm SE 
200454Z AUTO 36006KT 10SM CLR 05/M01 A3008 RMK AO2 SLP184 T00501011 402220044
TAF
KUIN 
35nm N 
191720Z 1918/2018 32010G17KT P6SM SCT060 FM192200 34013G19KT P6SM BKN035 FM200600 02007KT P6SM VCSH OVC040 FM201100 36007KT 6SM -SN BR OVC016 FM201400 36009KT 2SM -SN BR OVC008
NOTAMs
Click for the latest NOTAMs
NOTAMs are issued by the DoD/FAA and will open in a separate window not controlled by AirNav.

 

 
 

FBO, Fuel Providers, and Aircraft Ground Support

  
 Business Name 
 
 Contact 
 
 Services / Description 
 
Fuel Prices
 
Comments
  
City of Bowling Green 573-324-5451
no information available

If you are affiliated with City of Bowling Green and would like to show here your services, contact info, web link, logo, and more, click here
100LL
SS $3.44 
 Updated 12-Aug-2020
 
   write
SS=Self service
Update Fuel Prices
 

Would you like to see your business listed on this page?

 If your business provides an interesting product or service to pilots, flight crews, aircraft, or users of the Bowling Green Municipal Airport, you should consider listing it here.  To start the listing process, click on the button below
 
Add a business
 

Other Pages about Bowling Green Municipal Airport

Update a link
 
Copyright © AirNav, LLC. All rights reserved. Privacy Policy  Contact